Location: Elstree
(51.6403°N, 0.2969°W)
Time: 14:47:41
(UTC+00:00)

ERBS - Pass Details

Date: 03 March 2021
Orbit: 408 x 412 km, 57.0° (Epoch: 13 April)

Event Time Altitude Azimuth Distance (km) Brightness Sun altitude
Rises 18:55:14 0° 246° (WSW) 2,348 7.2 -11.6°
Reaches altitude 10° 18:57:19 10° 248° (WSW) 1,487 6.1 -12.0°
Maximum altitude 19:00:37 71° 332° (NNW) 443 2.4 -12.5°
Enters shadow 19:03:04 17° 56° (NE) 1,137 4.0 -12.9°
